Theta_e
312 312 313 313 314 313 312 313 313 313 313 314 314 314 315 315 315 315 315 315 315 315 316 315 316 318 319 322 324 324 326 338 349 342 340 340 339 337 336 333 331 331 328 333
312 312 312 312 311 312 312 313 313 313 313 313 313 314 313 314 314 314 315 316 315 315 315 315 315 317 320 321 323 324 326 327 333 347 348 344 341 338 336 337 334 332 326 329
312 312 311 311 311 311 312 313 313 313 312 312 313 314 313 313 313 313 314 315 314 314 314 315 316 317 318 319 319 320 323 326 327 329 339 349 350 349 345 340 337 334 334 328
312 311 311 311 311 312 313 312 311 311 312 313 312 312 313 313 313 313 313 314 314 314 316 316 317 317 316 316 317 319 321 323 325 327 327 334 345 348 348 348 345 341 342 342
312 311 311 312 312 311 311 311 312 312 312 313 313 313 313 312 312 313 313 313 315 316 317 316 317 316 316 316 317 319 320 322 323 328 329 329 333 336 342 346 347 345 344 348
312 312 311 312 312 311 312 312 313 314 313 312 313 312 312 314 313 313 313 313 314 316 317 317 315 315 315 316 318 319 320 321 322 324 327 330 331 332 335 340 346 347 348 350
314 312 312 311 312 313 312 314 315 313 315 312 314 313 313 314 313 313 313 313 314 317 317 316 316 317 316 316 317 318 319 320 321 322 323 326 329 333 333 337 338 343 344 345
315 315 312 312 312 313 314 314 315 314 313 313 313 313 316 313 313 313 313 314 315 316 316 316 316 316 316 316 317 318 319 320 321 321 322 324 326 328 332 333 333 335 337 339
315 315 312 312 312 312 313 314 313 314 314 314 314 313 313 314 314 313 313 313 315 316 315 316 316 316 316 316 317 319 320 321 322 322 322 323 326 326 329 334 336 337 338 339
314 316 314 313 312 312 313 313 316 315 315 314 313 314 314 315 314 314 313 314 315 315 315 316 316 316 315 316 318 318 319 321 323 324 322 321 323 325 328 333 339 340 341 341
313 314 314 314 314 314 315 314 313 314 315 317 316 314 316 315 315 314 314 314 314 314 314 315 316 315 315 314 317 318 318 318 320 324 324 321 322 323 326 330 335 339 343 343
313 313 314 313 312 312 312 313 313 317 317 318 318 318 315 315 314 314 315 315 315 315 315 315 315 315 314 314 314 317 317 317 318 321 325 323 322 323 325 329 334 337 339 344
314 315 316 312 313 312 313 312 313 314 316 320 322 317 315 314 315 315 315 315 315 315 315 315 316 316 315 314 314 316 317 317 317 318 323 326 326 327 327 330 334 337 338 342
312 315 315 315 312 313 314 312 313 314 320 318 317 316 316 315 316 315 316 315 315 315 315 315 314 314 314 314 314 316 316 316 317 317 322 325 329 331 330 330 333 338 337 341
313 315 313 313 312 312 312 313 313 314 316 318 316 316 315 316 316 316 316 316 315 315 314 313 313 313 314 313 314 315 315 316 317 317 321 325 328 330 333 332 334 337 337 339
314 315 313 314 312 312 314 314 314 314 315 315 315 316 315 316 315 315 314 315 315 313 313 312 312 312 313 313 314 313 314 315 317 318 321 324 327 329 332 334 337 338 338 339
314 314 314 313 310 314 316 315 315 315 315 315 316 315 315 315 315 314 315 314 314 313 311 311 311 313 313 312 313 313 314 316 317 319 321 324 326 329 332 335 337 338 339 342
312 312 311 313 313 317 314 313 313 314 314 315 315 315 315 315 314 313 313 313 311 310 310 312 311 312 311 311 312 313 314 316 317 319 321 324 326 329 333 336 338 339 342 345
309 311 314 317 317 315 313 317 317 317 316 314 315 315 315 314 314 313 313 312 310 309 311 310 310 310 311 311 312 313 315 316 317 319 321 323 327 331 336 339 339 340 343 345
311 311 317 315 318 315 312 315 314 314 317 315 315 315 315 313 316 315 312 310 310 310 309 311 310 311 311 311 312 314 315 316 318 319 320 324 329 330 337 338 338 341 343 345
312 312 314 313 316 314 315 314 313 317 317 315 314 314 315 315 314 311 309 310 310 311 310 310 310 312 312 313 314 316 316 317 317 319 321 326 330 332 336 337 340 343 342 341
315 315 316 315 317 316 314 314 315 314 314 314 313 312 311 310 309 309 310 309 309 309 309 309 311 311 311 312 314 316 318 318 317 320 323 328 328 334 337 339 340 338 338 337
315 316 317 315 317 314 312 314 313 313 313 312 310 309 309 309 309 308 309 309 309 309 310 310 311 311 312 313 314 317 318 319 320 323 326 328 333 336 337 336 336 338 337 334
312 311 314 314 313 312 313 313 312 312 310 309 308 308 309 309 308 308 307 308 308 308 309 309 310 311 312 312 314 317 319 321 323 325 329 334 333 333 334 335 336 336 334 333
312 311 312 314 312 312 312 312 311 309 308 308 309 308 307 307 307 307 307 307 307 308 308 309 310 310 312 312 315 319 322 324 325 327 332 333 332 333 334 333 334 333 331 332
308 309 309 310 306 308 311 310 307 308 308 308 307 306 306 306 306 306 306 306 306 307 307 307 308 309 311 313 317 320 321 324 328 332 331 332 331 329 329 328 322 330 329 330
Wind_Speed
8 10 12 10 6 6 6 8 9 5 4 10 12 13 15 13 15 15 14 13 12 12 11 13 11 10 10 9 13 14 8 3 7 24 22 19 23 21 25 30 32 33 34 28
9 13 8 3 6 8 9 10 11 7 6 9 13 17 16 17 15 17 15 14 12 11 10 10 9 9 11 11 10 11 10 6 7 15 14 15 10 19 29 22 30 33 42 37
10 5 6 8 9 10 11 11 8 9 10 15 13 19 9 6 7 6 8 7 8 9 8 7 8 12 13 11 11 10 11 11 9 9 12 13 12 15 18 27 33 35 37 44
7 6 7 9 9 9 12 5 6 8 10 8 1 5 9 9 6 6 4 3 4 7 6 3 3 6 9 11 11 9 9 11 10 9 10 15 19 21 23 22 21 27 32 31
1 8 10 10 7 5 8 2 8 11 13 13 16 7 4 6 7 11 3 2 2 2 2 2 4 5 8 12 12 11 10 9 9 10 10 14 20 23 22 21 32 26 30 25
15 8 8 11 6 9 1 10 12 13 10 11 10 6 6 8 7 5 4 5 1 1 1 1 3 8 10 11 11 14 13 10 9 9 10 13 18 21 23 24 25 24 22 23
17 15 12 9 11 8 10 10 8 8 8 6 5 5 8 5 2 6 8 7 6 5 3 5 10 9 12 12 12 12 14 18 14 13 13 14 17 20 24 27 28 27 25 26
15 11 14 10 13 11 8 8 8 6 7 7 4 6 7 6 4 5 5 7 9 8 5 8 9 10 14 12 12 15 17 17 18 17 16 16 17 19 21 23 28 30 28 28
8 15 7 6 5 6 4 10 5 8 15 12 10 7 10 12 6 4 7 6 8 5 8 10 11 14 13 12 14 15 17 19 20 22 21 19 18 19 22 23 24 29 30 26
4 12 5 6 4 9 14 5 5 8 7 12 8 10 8 13 1 4 4 4 6 10 13 14 14 15 15 15 16 17 17 18 19 22 24 24 22 20 21 23 24 26 26 26
7 9 10 8 12 16 9 13 9 8 10 11 12 5 7 2 6 3 4 7 15 18 16 14 16 19 20 20 18 19 21 21 20 21 23 24 25 24 22 23 23 26 27 25
2 5 11 14 13 5 12 13 12 10 10 8 10 15 7 5 2 5 13 13 13 16 16 15 15 20 22 22 21 21 20 23 22 21 22 23 24 24 24 24 25 23 25 25
2 6 8 10 9 6 11 16 16 15 13 15 11 11 4 6 13 18 18 15 14 16 15 15 16 17 19 22 24 22 21 24 23 22 23 24 24 25 26 26 26 24 25 25
4 12 13 12 12 2 6 10 10 12 10 15 20 27 20 20 19 17 17 16 17 16 16 14 15 18 22 23 25 22 25 24 24 23 23 24 25 25 26 27 26 25 25 25
10 17 17 18 18 17 18 19 19 18 21 22 22 27 23 22 22 21 20 18 20 18 19 20 21 20 21 27 25 23 24 24 24 25 25 25 26 25 26 27 27 25 26 27
7 6 8 12 15 17 19 21 21 22 22 23 24 26 24 21 16 18 15 18 20 23 25 25 27 26 21 24 23 25 26 26 24 26 27 27 26 26 27 28 26 26 27 26
4 4 4 9 6 9 13 18 14 18 20 16 19 20 20 21 20 16 18 21 25 26 26 21 21 23 18 23 25 27 28 27 26 27 28 26 26 26 27 27 26 26 27 27
9 7 2 7 10 10 1 2 10 15 16 17 19 20 20 18 19 20 23 26 23 24 25 22 20 22 30 31 29 29 30 28 29 28 29 25 26 25 28 28 27 26 26 28
14 10 4 4 7 14 17 5 7 11 17 19 19 14 22 25 27 24 24 23 21 21 21 22 29 31 30 31 27 28 30 28 29 28 28 24 26 23 25 27 26 26 27 27
6 11 4 4 5 6 5 4 4 11 16 3 16 21 26 20 17 17 24 26 21 24 20 20 28 30 29 30 30 26 28 26 28 30 28 25 23 22 23 22 25 28 28 29
3 3 8 9 7 10 7 6 8 9 8 22 23 22 24 20 22 29 29 25 22 22 24 27 28 26 26 29 26 24 26 27 30 29 27 26 21 20 26 26 29 28 29 29
3 3 4 5 4 6 5 15 5 13 23 24 25 25 26 28 30 28 23 25 24 23 24 29 20 21 27 29 25 26 23 31 25 27 29 23 18 24 28 29 27 29 32 33
3 2 4 5 5 17 16 15 17 17 21 24 25 25 28 28 26 25 23 23 22 22 20 27 22 23 27 28 26 24 29 25 30 29 21 19 19 26 28 28 30 29 30 30
5 6 2 6 5 11 18 21 18 21 24 26 26 27 23 27 25 23 22 20 19 20 20 26 21 19 20 27 29 30 27 25 24 19 19 22 25 26 26 27 29 30 28 27
3 5 4 10 16 17 15 21 22 24 25 26 26 26 24 22 21 21 20 20 20 21 21 24 16 17 21 28 27 27 23 20 19 19 25 25 27 27 26 25 25 28 27 27
3 4 3 5 18 16 17 20 25 25 28 29 23 21 20 19 21 21 19 20 20 20 19 20 22 22 29 27 27 22 17 17 10 12 23 26 25 26 27 27 26 24 22 22
Wind_Direction
199 250 225 242 242 309 275 261 259 240 277 271 260 266 267 257 257 247 252 256 270 265 282 285 294 325 341 360 357 2 12 287 203 219 211 222 221 224 232 224 233 226 234 233
231 235 255 236 227 238 242 248 252 277 263 288 277 282 277 263 255 243 240 240 240 255 278 291 291 322 341 350 359 346 341 329 248 223 228 230 205 225 236 232 233 230 239 234
273 14 159 221 217 238 234 262 281 281 313 273 276 266 218 206 229 194 206 216 250 268 291 293 314 328 335 343 346 335 325 320 312 287 254 244 241 232 225 226 226 229 233 237
255 134 211 225 249 243 264 185 271 277 281 288 53 285 191 202 187 176 144 214 257 255 293 270 293 325 331 328 334 332 326 318 310 300 274 259 247 236 230 235 253 233 227 221
236 202 216 243 271 227 284 269 269 286 278 279 252 237 207 186 195 162 61 34 347 142 156 328 330 333 327 325 325 320 319 317 301 290 273 259 247 254 252 244 236 222 225 219
263 276 283 284 292 242 306 252 254 252 258 247 232 242 214 175 215 152 302 310 261 14 311 303 324 312 313 319 320 319 314 312 306 277 269 261 262 258 256 247 243 237 231 228
233 231 241 262 238 207 236 257 272 238 203 244 98 259 269 138 177 290 310 302 250 221 288 318 314 330 311 299 307 312 312 311 308 297 278 261 254 252 250 250 246 241 234 232
270 240 207 194 234 286 236 296 282 281 278 297 203 249 128 103 286 284 266 282 264 259 293 297 307 310 317 293 299 305 309 305 307 301 286 272 265 259 255 250 245 247 242 236
271 254 137 207 222 275 250 237 326 298 263 259 249 223 227 206 203 201 273 310 273 258 280 301 313 315 314 305 289 299 306 306 304 299 291 277 268 263 259 257 251 245 245 239
296 275 214 160 241 257 262 329 229 213 263 258 247 255 252 188 293 332 299 297 308 299 301 305 307 307 313 300 294 291 293 300 299 294 288 278 270 264 257 255 251 245 243 239
293 255 257 226 221 242 213 230 229 299 278 273 284 275 73 323 298 315 289 305 304 295 288 296 299 302 299 296 287 285 289 291 297 294 286 277 273 270 265 259 253 244 236 234
251 294 270 268 275 260 282 271 229 236 228 234 277 277 353 308 296 272 286 309 307 303 296 290 290 296 293 292 289 281 282 287 289 291 286 276 270 269 265 260 253 247 234 226
347 237 267 239 188 218 238 234 241 254 262 257 257 250 155 219 257 302 302 291 301 303 290 296 295 289 288 286 285 280 281 283 287 288 282 273 268 265 259 256 252 244 230 220
323 265 263 273 310 247 245 255 250 250 248 251 250 275 276 288 295 301 290 293 306 296 292 289 291 297 292 284 282 279 280 278 281 286 279 276 267 264 259 255 250 241 228 216
249 261 268 267 274 278 274 270 265 246 242 250 266 273 287 294 300 299 296 296 290 290 292 294 294 289 288 281 276 275 276 278 278 284 278 273 268 267 262 254 247 237 225 214
234 263 282 285 266 258 263 262 260 256 255 258 268 273 275 278 312 299 298 291 295 295 290 295 292 278 274 278 270 281 280 277 275 280 277 273 268 264 263 251 244 231 219 208
328 268 329 283 296 298 270 261 263 257 249 254 271 290 313 301 311 320 305 301 294 292 295 293 300 308 288 278 273 279 278 278 274 275 273 268 270 262 260 245 235 221 209 198
252 275 263 281 296 256 324 288 312 290 283 285 288 301 309 312 300 310 296 282 291 307 303 286 297 287 285 287 280 277 275 271 269 269 269 271 269 259 256 237 223 210 199 190
231 235 259 254 256 286 288 32 353 338 295 301 293 320 316 312 308 294 278 296 309 302 287 291 278 277 277 272 273 272 268 269 269 268 264 270 265 256 254 226 209 198 187 176
209 224 240 244 291 277 333 83 344 318 281 106 328 319 310 302 287 295 299 304 307 296 289 277 287 281 275 275 266 262 263 264 264 262 269 268 263 266 228 190 193 184 176 163
150 199 231 254 259 272 25 16 321 280 328 325 313 303 295 287 284 304 309 310 303 297 292 289 284 274 270 271 266 260 263 259 258 267 270 269 257 255 191 183 181 170 152 142
236 228 223 224 247 265 21 331 295 305 301 301 298 298 300 303 306 310 309 306 293 295 291 284 275 271 268 266 261 258 251 261 273 269 263 262 258 210 182 166 156 146 138 133
279 249 296 300 294 314 313 299 307 298 299 302 304 304 305 312 307 308 297 296 293 288 285 285 279 275 272 268 259 251 250 246 247 248 258 239 213 160 150 146 140 144 142 132
334 5 247 314 266 303 305 302 306 311 307 310 310 309 315 315 302 296 296 294 290 286 282 281 277 271 269 263 257 250 251 245 245 247 228 171 145 145 142 140 144 142 136 131
341 332 293 267 296 316 292 312 315 321 317 314 326 321 308 298 296 295 294 295 292 288 287 285 277 267 262 262 254 245 240 242 253 254 154 139 135 132 133 127 134 131 135 147
1 347 309 287 296 287 289 316 335 319 334 323 314 309 309 305 300 302 301 296 293 291 294 291 282 269 262 246 237 229 225 228 241 142 130 130 128 126 125 118 98 123 141 146